| time (UTC) | temp F | wind direction | speed knots | gust knots | rain 1hr in | rain 24hr in | rain mn in | humidity % | barometer mb |
| 20260508043025 | 48 | 286 | 1.7 | 6.1 | 0.00 | 0.61 | 0.00 | 100 | 1001.4 |
| 20260508041522 | 47 | 207 | 0.0 | 0.0 | 0.00 | 0.61 | 0.00 | 100 | 1001.6 |
| 20260508040028 | 47 | 207 | 0.0 | 0.0 | 0.00 | 0.61 | 0.00 | 100 | 1001.7 |
| 20260508034520 | 47 | 207 | 0.0 | 0.0 | 0.00 | 0.61 | 0.00 | 100 | 1001.7 |
| 20260508033016 | 47 | 207 | 0.0 | 0.0 | 0.00 | 0.61 | 0.00 | 99 | 1001.7 |
| 20260508031516 | 47 | 207 | 0.0 | 2.6 | 0.00 | 0.61 | 0.00 | 99 | 1001.6 |
| 20260508030022 | 47 | 207 | 0.0 | 0.0 | 0.00 | 0.61 | 0.00 | 99 | 1001.7 |
| 20260508024516 | 46 | 211 | 0.0 | 4.3 | 0.00 | 0.61 | 0.61 | 99 | 1001.5 |
| 20260508023010 | 46 | 188 | 0.9 | 3.5 | 0.00 | 0.61 | 0.61 | 99 | 1001.4 |
| 20260508021550 | 46 | 199 | 1.7 | 4.3 | 0.00 | 0.61 | 0.61 | 99 | 1001.4 |
| 20260508020104 | 46 | 178 | 1.7 | 7.8 | 0.00 | 0.61 | 0.61 | 99 | 1001.7 |
| 20260508014556 | 46 | 206 | 3.5 | 6.1 | 0.00 | 0.61 | 0.61 | 99 | 1001.5 |
| 20260508013059 | 46 | 209 | 2.6 | 7.0 | 0.00 | 0.61 | 0.61 | 99 | 1001.3 |
| 20260508011547 | 47 | 193 | 3.5 | 7.8 | 0.00 | 0.61 | 0.61 | 99 | 1001.6 |
| 20260508010045 | 47 | 174 | 2.6 | 8.7 | 0.00 | 0.61 | 0.61 | 99 | 1002.0 |
| 20260508004544 | 47 | 177 | 4.3 | 9.6 | 0.00 | 0.61 | 0.61 | 99 | 1001.9 |
| 20260508003045 | 47 | 168 | 3.5 | 7.8 | 0.00 | 0.61 | 0.61 | 99 | 1001.8 |
| 20260508001551 | 48 | 216 | 5.2 | 7.8 | 0.00 | 0.61 | 0.61 | 99 | 1001.8 |
| 20260508000042 | 47 | 188 | 3.5 | 7.8 | 0.00 | 0.61 | 0.61 | 99 | 1002.2 |
| 20260507234542 | 47 | 193 | 3.5 | 12.2 | 0.00 | 0.61 | 0.61 | 99 | 1002.2 |
| 20260507233042 | 47 | 190 | 4.3 | 7.8 | 0.01 | 0.61 | 0.61 | 99 | 1002.5 |
| 20260507231540 | 47 | 182 | 7.0 | 13.0 | 0.01 | 0.61 | 0.61 | 99 | 1002.4 |
| 20260507230040 | 47 | 163 | 6.1 | 17.4 | 0.01 | 0.61 | 0.61 | 99 | 1002.4 |
| 20260507224540 | 48 | 145 | 8.7 | 14.8 | 0.01 | 0.61 | 0.61 | 98 | 1002.7 |
| 20260507223039 | 47 | 158 | 9.6 | 16.5 | 0.00 | 0.61 | 0.61 | 99 | 1002.3 |
| 20260507221538 | 47 | 187 | 7.0 | 12.2 | 0.02 | 0.61 | 0.61 | 98 | 1002.9 |
| 20260507220038 | 47 | 150 | 7.8 | 15.6 | 0.06 | 0.61 | 0.61 | 98 | 1002.2 |
| 20260507214539 | 47 | 153 | 9.6 | 18.2 | 0.17 | 0.61 | 0.61 | 98 | 1002.2 |
| 20260507213042 | 47 | 137 | 10.4 | 15.6 | 0.24 | 0.61 | 0.61 | 98 | 1002.6 |
| 20260507211543 | 48 | 170 | 10.4 | 18.2 | 0.28 | 0.57 | 0.57 | 98 | 1003.2 |
| 20260507210029 | 48 | 181 | 10.4 | 22.6 | 0.32 | 0.54 | 0.54 | 98 | 1003.4 |
| 20260507204525 | 48 | 138 | 7.0 | 13.0 | 0.28 | 0.44 | 0.44 | 98 | 1004.4 |
| 20260507203024 | 48 | 228 | 7.0 | 20.0 | 0.27 | 0.37 | 0.37 | 98 | 1004.8 |
| 20260507201533 | 48 | 177 | 10.4 | 19.1 | 0.22 | 0.28 | 0.28 | 98 | 1004.2 |
| 20260507200022 | 48 | 144 | 10.4 | 20.0 | 0.17 | 0.21 | 0.21 | 98 | 1004.5 |
| 20260507194517 | 49 | 157 | 8.7 | 17.4 | 0.13 | 0.15 | 0.15 | 98 | 1004.9 |
| 20260507193020 | 49 | 168 | 10.4 | 22.6 | 0.09 | 0.09 | 0.09 | 98 | 1005.0 |
| 20260507191521 | 49 | 146 | 9.6 | 20.0 | 0.07 | 0.07 | 0.07 | 98 | 1005.5 |
| 20260507190016 | 49 | 153 | 9.6 | 14.8 | 0.04 | 0.04 | 0.04 | 98 | 1005.4 |
| 20260507184511 | 49 | 164 | 8.7 | 23.5 | 0.02 | 0.02 | 0.02 | 97 | 1005.2 |
| 20260507183009 | 49 | 203 | 8.7 | 22.6 | 0.01 | 0.01 | 0.01 | 96 | 1005.2 |
| 20260507181507 | 50 | 162 | 11.3 | 20.0 | 0.00 | 0.00 | 0.00 | 96 | 1005.0 |
| 20260507180008 | 51 | 165 | 10.4 | 22.6 | 0.00 | 0.00 | 0.00 | 95 | 1005.5 |
| 20260507174512 | 51 | 153 | 13.9 | 20.9 | 0.00 | 0.00 | 0.00 | 94 | 1005.8 |
| 20260507173003 | 52 | 127 | 13.0 | 20.0 | 0.00 | 0.00 | 0.00 | 94 | 1006.2 |
| 20260507171503 | 52 | 158 | 10.4 | 20.9 | 0.00 | 0.00 | 0.00 | 94 | 1006.3 |
| 20260507170100 | 52 | 164 | 8.7 | 18.2 | 0.00 | 0.00 | 0.00 | 94 | 1007.1 |
| 20260507164559 | 52 | 144 | 8.7 | 19.1 | 0.00 | 0.00 | 0.00 | 95 | 1007.1 |
| 20260507163058 | 52 | 156 | 13.0 | 22.6 | 0.00 | 0.00 | 0.00 | 94 | 1007.6 |
| 20260507161556 | 51 | 198 | 12.2 | 19.1 | 0.00 | 0.00 | 0.00 | 94 | 1008.1 |
| 20260507160053 | 52 | 199 | 8.7 | 19.1 | 0.00 | 0.00 | 0.00 | 93 | 1008.3 |
| 20260507154552 | 52 | 182 | 10.4 | 24.3 | 0.00 | 0.00 | 0.00 | 93 | 1008.3 |
| 20260507153101 | 52 | 150 | 11.3 | 21.7 | 0.00 | 0.00 | 0.00 | 94 | 1008.5 |
| 20260507151546 | 51 | 155 | 11.3 | 24.3 | 0.00 | 0.00 | 0.00 | 94 | 1009.1 |
| 20260507150045 | 52 | 156 | 7.0 | 25.2 | 0.00 | 0.00 | 0.00 | 96 | 1009.2 |
| 20260507144544 | 52 | 193 | 13.0 | 20.0 | 0.00 | 0.00 | 0.00 | 95 | 1009.7 |
| 20260507143049 | 52 | 182 | 13.0 | 27.8 | 0.00 | 0.00 | 0.00 | 95 | 1010.5 |
| 20260507141539 | 52 | 170 | 8.7 | 20.9 | 0.00 | 0.00 | 0.00 | 94 | 1010.6 |
| 20260507140039 | 53 | 183 | 12.2 | 20.9 | 0.00 | 0.00 | 0.00 | 93 | 1010.7 |
| 20260507134537 | 52 | 168 | 11.3 | 18.2 | 0.00 | 0.00 | 0.00 | 94 | 1010.9 |
| 20260507133044 | 52 | 149 | 11.3 | 28.7 | 0.00 | 0.00 | 0.00 | 94 | 1010.5 |
| 20260507131540 | 51 | 159 | 13.9 | 21.7 | 0.00 | 0.00 | 0.00 | 95 | 1010.9 |
| 20260507130035 | 50 | 163 | 10.4 | 21.7 | 0.00 | 0.00 | 0.00 | 96 | 1010.6 |
| 20260507124529 | 50 | 145 | 13.0 | 20.9 | 0.00 | 0.00 | 0.00 | 97 | 1010.8 |
| 20260507123026 | 49 | 145 | 8.7 | 17.4 | 0.00 | 0.00 | 0.00 | 97 | 1011.3 |
| 20260507121521 | 49 | 145 | 12.2 | 20.0 | 0.00 | 0.00 | 0.00 | 97 | 1012.0 |
| 20260507120019 | 49 | 173 | 13.0 | 25.2 | 0.00 | 0.00 | 0.00 | 97 | 1012.4 |
| 20260507114517 | 49 | 195 | 9.6 | 20.9 | 0.00 | 0.00 | 0.00 | 97 | 1012.5 |
| 20260507113023 | 49 | 199 | 9.6 | 20.9 | 0.00 | 0.00 | 0.00 | 97 | 1012.8 |
| 20260507111518 | 49 | 157 | 8.7 | 17.4 | 0.00 | 0.00 | 0.00 | 98 | 1012.4 |
| 20260507110013 | 49 | 196 | 12.2 | 20.0 | 0.00 | 0.00 | 0.00 | 98 | 1012.6 |
| 20260507104511 | 49 | 173 | 8.7 | 16.5 | 0.00 | 0.00 | 0.00 | 98 | 1013.4 |
| 20260507103008 | 48 | 164 | 7.8 | 16.5 | 0.00 | 0.00 | 0.00 | 98 | 1013.4 |
| 20260507101507 | 48 | 158 | 8.7 | 15.6 | 0.00 | 0.00 | 0.00 | 97 | 1013.3 |
| 20260507100010 | 48 | 171 | 7.8 | 13.0 | 0.00 | 0.00 | 0.00 | 97 | 1012.9 |
| 20260507094502 | 49 | 157 | 7.8 | 15.6 | 0.00 | 0.00 | 0.00 | 97 | 1013.0 |
| 20260507093102 | 49 | 156 | 9.6 | 14.8 | 0.00 | 0.00 | 0.00 | 97 | 1013.1 |
| 20260507091556 | 49 | 154 | 7.0 | 14.8 | 0.00 | 0.00 | 0.00 | 97 | 1013.6 |
| 20260507090059 | 49 | 191 | 8.7 | 15.6 | 0.00 | 0.00 | 0.00 | 97 | 1013.4 |
| 20260507084603 | 50 | 136 | 7.0 | 11.3 | 0.00 | 0.00 | 0.00 | 97 | 1013.5 |
| 20260507083051 | 50 | 165 | 5.2 | 12.2 | 0.00 | 0.00 | 0.00 | 96 | 1013.5 |
| 20260507081548 | 50 | 176 | 7.8 | 13.9 | 0.00 | 0.00 | 0.00 | 96 | 1013.8 |
| 20260507080050 | 50 | 155 | 4.3 | 13.0 | 0.00 | 0.00 | 0.00 | 96 | 1014.2 |
| 20260507074544 | 49 | 167 | 6.1 | 9.6 | 0.00 | 0.00 | 0.00 | 96 | 1014.3 |
| 20260507073043 | 49 | 155 | 7.0 | 11.3 | 0.00 | 0.00 | 0.00 | 96 | 1014.4 |
| 20260507071542 | 49 | 161 | 4.3 | 11.3 | 0.00 | 0.00 | 0.00 | 96 | 1014.6 |
| 20260507070059 | 49 | 190 | 7.0 | 14.8 | 0.00 | 0.00 | 0.00 | 96 | 1014.7 |
| 20260507064541 | 49 | 163 | 7.0 | 12.2 | 0.00 | 0.00 | 0.00 | 96 | 1014.7 |
| 20260507063035 | 50 | 170 | 7.8 | 13.0 | 0.00 | 0.00 | 0.00 | 96 | 1014.9 |
| 20260507061529 | 51 | 161 | 6.1 | 13.0 | 0.00 | 0.00 | 0.00 | 96 | 1015.0 |
| 20260507060033 | 52 | 201 | 8.7 | 17.4 | 0.00 | 0.00 | 0.00 | 97 | 1015.1 |
| 20260507054524 | 52 | 170 | 5.2 | 11.3 | 0.00 | 0.00 | 0.00 | 97 | 1015.3 |
| 20260507053022 | 52 | 153 | 7.8 | 13.9 | 0.00 | 0.00 | 0.00 | 97 | 1015.6 |
| 20260507051520 | 51 | 188 | 3.5 | 12.2 | 0.00 | 0.00 | 0.00 | 97 | 1015.9 |
| 20260507050037 | 52 | 174 | 4.3 | 13.9 | 0.00 | 0.00 | 0.00 | 97 | 1016.1 |
| 20260507044516 | 52 | 188 | 5.2 | 14.8 | 0.00 | 0.00 | 0.00 | 96 | 1016.2 |